Volver al catálogo

SL-12 R/B(2)

ActivoMEO
NORAD 28918·ROCKET BODY·🇷🇺 Russia

Lanzado Dec 25, 2005 desde Baikonur Cosmodrome

Loading…

Próximos Pases (próximas 24 horas)

TLE

ActualizadoSource: Space-Track

Época: Sep 13, 2026, 09:34 UTC

1 28918U 05050D   26256.39921172 -.00000050  00000-0  00000-0 0  9999
2 28918  65.4938 312.1130 0011279 208.0060 149.5541  2.13506561161558

Sigue SL-12 R/B(2) en tiempo real con AllMySat

Download on the App Store